sat.trackr.live / text

‹ back to catalog

STARLINK-35633

NORAD 66162 · 2025-240S

PAYLOAD ACTIVE UNKNOWN

§ Identity

Operator
Country
US
Launch date
2025-10-25
Launch site
AFWTR
Launch vehicle
Mass (kg)
RCS (m²)

Purposes: comms

External: N2YO · Heavens-Above · Gunter

§ Orbital elements

Epoch: 2026-05-25T04:45:04.189824Z

Period
94.10 min
Inclination
53.1587°
Eccentricity
0.0001637
Mean motion
15.30233029 rev/d
Perigee alt
474.0 km
Apogee alt
476.2 km
Semi-major
6,853.3 km
B*
9.4160e-4
RAAN
67.3251°
Arg perigee
89.6046°
Mean anomaly
270.5142°
Rev number
3,370

§ Raw data

STARLINK-356331 66162U 25240S   26145.19796516  .00027661  00000+0  94160-3 0  99902 66162  53.1587  67.3251 0001637  89.6046 270.5142 15.30233029 33708

JSON: /api/v1/satellites/66162 · /tle

For live sub-satellite position, see the globe view (requires WebGL).

§ Visibility from observer

Set your observer location to see the next 7 days of passes ≥ 10°. The values pass through the URL so the page stays shareable.

No JS? Fill the form by hand. The geolocation button needs JavaScript.